Back to catalog

N-1 R/B

AliveLEO
NORAD 8352·ROCKET BODY·🇯🇵 Japan

Launched Sep 9, 1975 from Tanegashima Space Center

Loading…

Next Passes (next 24 hours)

TLE

FreshSource: Space-Track

Epoch: Sep 14, 2026, 15:09 UTC

1 08352U 75082B   26257.63156434 -.00000060  00000-0  84201-4 0  9990
2 08352  46.9864 132.1486 0084484 176.6427 205.3111 13.61118942536095

Track N-1 R/B in real time with AllMySat

Download on the App Store